Overview Statistics Trail Chart Weather Telemetry Raw packets
 

This is the latest recevied weather packets stored in our database for station/object KE5QKR. If no packets are shown the sender has not sent any weather packets the latest 10 day(s).

<< 28 29 30 31 32 33 34 >>
Time Temp. Humidity Pressure Rain* Wind** Luminosity Snow
1777790262 11.11° C 85% 1018.2 hPa 0 mm - 0 W/m² -
1777789961 11.67° C 84% 1018.3 hPa 0 mm - 0 W/m² -
1777789658 11.67° C 82% 1018.2 hPa 0 mm - 0 W/m² -
1777789358 11.67° C 80% 1018.3 hPa 0 mm - 0 W/m² -
1777789054 11.67° C 81% 1018.4 hPa 0 mm - 0 W/m² -
1777788751 11.67° C 82% 1018.4 hPa 0 mm - 0 W/m² -
1777788447 12.22° C 79% 1018.5 hPa 0 mm - 0 W/m² -
1777788147 12.22° C 78% 1018.5 hPa 0 mm - 0 W/m² -
1777787842 12.22° C 78% 1018.3 hPa 0 mm - 0 W/m² -
1777787539 12.22° C 78% 1018.3 hPa 0 mm - 0 W/m² -
1777787233 12.78° C 78% 1018.4 hPa 0 mm - 0 W/m² -
1777786931 12.78° C 77% 1018.4 hPa 0 mm - 0 W/m² -
1777786629 12.78° C 77% 1018.2 hPa 0 mm - 0 W/m² -
1777786327 12.78° C 77% 1018.1 hPa 0 mm - 0 W/m² -
1777786023 12.78° C 77% 1018 hPa 0 mm - 0 W/m² -
1777785720 12.78° C 77% 1018.1 hPa 0 mm - 0 W/m² -
1777785415 12.78° C 77% 1018.1 hPa 0 mm - 0 W/m² -
1777785113 12.78° C 77% 1018.1 hPa 0 mm - 0 W/m² -
1777784809 13.33° C 75% 1018.1 hPa 0 mm - 0 W/m² -
1777784506 12.78° C 76% 1017.9 hPa 0 mm - 0 W/m² -
1777784203 12.78° C 78% 1017.8 hPa 0 mm - 0 W/m² -
1777783901 13.33° C 75% 1017.8 hPa 0 mm - 0 W/m² -
1777783597 13.33° C 74% 1018 hPa 0 mm - 0 W/m² -
1777783295 13.89° C 73% 1018.1 hPa 0 mm - 0 W/m² -
1777782991 13.89° C 73% 1017.8 hPa 0 mm - 0 W/m² -

* Rain latest hour (hover to see other rain measurements)
** Current wind speed in m/s (hover to see current wind gust speed)